Weather Roundup
Issued by NWS Springfield, MO

Home | Current Version | Previous Version | Text Only | Print | Product List | Glossary On
Versions: 1 2 3 4 5 6 7 8 9 10 11 12 13 14 15 16 17 18 19 20 21 22 23 24 25 26 27 28 29 30 31 32 33 34 35 36 37 38 39 40 41 42 43 44 45 46 47 48 49 50
152
NZUS99 KSGF 241307
HRRSGF

HOURLY WEATHER
NATIONAL WEATHER SERVICE SPRINGFIELD MO
800 AM CDT MON JUL 24 2017

......SGF CWA......

CITY           SKY/WX    TMP DP  RH WIND       PRES   REMARKS
SPRINGFIELD    SUNNY     75  71  87 NW3       29.99R
JOPLIN         SUNNY     77  73  87 SW8       29.99R
WEST PLAINS    SUNNY     80  67  64 CALM      29.97R
ROLLA          SUNNY     73  67  81 E7        29.98R
OSAGE BEACH    SUNNY     74  70  87 NE5       29.98R
BRANSON        MOSUNNY   75  70  83 CALM      30.00R

......SURROUNDING SGF CWA......

CITY           SKY/WX    TMP DP  RH WIND       PRES   REMARKS
CHANUTE        SUNNY     77  72  84 MISG      29.98R
PARSONS        SUNNY     73  72  96 CALM      29.98R
COFFEYVILLE    FOG       75  72  90 CALM      29.97R VSB 1/4
EMPORIA        SUNNY     74  70  87 NE6       30.00R
GROVE OK       SUNNY     72  72 100 CALM      29.99S
ROGERS AR      SUNNY     74  69  85 W3        30.01R
SILOAM SPRINGS SUNNY     72  68  88 CALM      30.00S
HARRISON AR    SUNNY     76  69  79 W7        30.00R
NEAR YELLVILLE PTSUNNY   75  64  69 SW5       29.95R

......KANSAS AND MISSOURI......

CITY           SKY/WX    TMP DP  RH WIND       PRES   REMARKS
KANSAS CTY INT PTSUNNY   72  65  78 NE8       30.01R
DOWNTOWN KC    MOSUNNY   74  66  76 NE7       29.99R
COLUMBIA       CLOUDY    73  66  78 E7        30.00R
SEDALIA        MOSUNNY   73  70  90 NE6       30.01R
ST JOSEPH      SUNNY     70  67  90 N3        30.02R
ST LOUIS       MOSUNNY   77  65  66 NE5       29.97R
SPIRIT OF STL  MOSUNNY   76  67  73 N3        29.96R
KIRKSVILLE     SUNNY     68  63  84 NE9       30.03R
WICHITA        SUNNY     77  71  82 CALM      29.98S
TOPEKA         SUNNY     75  68  78 NE5       30.00R
OLATHE         MOSUNNY   72  66  81 E9        30.00S

......TENNESSEE......

CITY           SKY/WX    TMP DP  RH WIND       PRES   REMARKS
MEMPHIS        CLOUDY    79  74  84 S5        29.95R
NASHVILLE      PTSUNNY   76  68  76 SW3       29.97R

......ARKANSAS.......

CITY           SKY/WX    TMP DP  RH WIND       PRES   REMARKS
FAYETTEVILLE   SUNNY     68  68 100 CALM      30.01R
FT SMITH       CLOUDY    75  73  93 SW5       29.98R
LITTLE ROCK    PTSUNNY   74  74 100 W6        29.95R

......OKLAHOMA.......

CITY           SKY/WX    TMP DP  RH WIND       PRES   REMARKS
TULSA          SUNNY     76  70  82 SE3       29.95R
PONCA CITY     SUNNY     75  68  78 CALM      29.97R
MCALESTER      SUNNY     75  71  87 CALM      29.98R
OKLAHOMA CITY  SUNNY     74  70  87 NW6       29.98R

......IOWA............

CITY           SKY/WX    TMP DP  RH WIND       PRES   REMARKS
DES MOINES     MOSUNNY   68  60  75 NE7       30.03R
QUAD CITIES    CLOUDY    70  64  81 E8        30.00R

......ILLINOIS........

CITY           SKY/WX    TMP DP  RH WIND       PRES   REMARKS
QUINCY         SUNNY     70  63  78 N7        29.99R
CHICAGO        PTSUNNY   68  60  75 N12       29.99S




USA.gov is the U.S. government's official web portal to all federal, state and local government web resources and services.